Find INTELSAT II F-3

NORAD ID: 2717 Int'l Des: 1967-026 Owner: INTEL Country: I-INT operational
MEOCIRCULARGSO

Live-Position

3D-Globus wird geladen...

Über INTELSAT II F-3

Beschreibung wird geladen...

Nächste Überflüge

Passes for default location (London). Set your location on the main map for personalized predictions.

Höhenverlauf

Loading altitude history...

Zweizeiliger Elementsatz

1 2717U 67026A 26105.65902566 .00000109 00000-0 00000+0 0 9990
2 2717 3.9278 68.3537 0018332 228.3997 158.7430 1.00324735123275
Epoch: 15. Apr. 2026 • Age: 17 hours

Aktueller Status

Höhe 35721.3 km
Geschwindigkeit 3.08 km/s
Subsatellitenpunkt -3.88°S, 14.73°E
Typ communications

Most Searched